Weather observations for the past three days for
Kodiak, Kodiak Airport
Imperial (Metric)
Date Time (akdt) Wind (mph) Vis. (mi.) Weather Sky Cond. Temperature (ºF) Relative Humidity Wind Chill (°F) Heat Index (°F) Pressure Precipitation (in)
Air Dwpt 6 hour altimeter (in) sea level (mb) 1 hr 3 hr 6 hr
Max. Min.
21 14:53 NE 5 10.00 Overcast OVC027 61 54 78% 30.12 1020.1
21 13:53 E 6 10.00 Overcast OVC024 60.1 54 80% 30.13 1020.4
21 12:53 Vrbl 6 10.00 Overcast OVC020 62.1 54 75% 30.14 1020.5
21 11:53 N 5 10.00 Mostly Cloudy BKN019 60.1 53.1 78% 30.14 1020.8
21 10:53 NW 10 10.00 Mostly Cloudy BKN022 61 53.1 75% 30.15 1020.9
21 09:53 NW 10 10.00 Mostly Cloudy BKN027 59 52 59 53.1 78% 30.15 1020.9
21 08:53 Calm 10.00 Overcast BKN028 OVC034 55.9 52 87% 30.16 1021.2
21 07:53 N 5 10.00 Mostly Cloudy BKN060 54 51.1 90% 30.16 1021.3
21 06:53 N 5 10.00 Mostly Cloudy BKN021 53.1 51.1 93% 30.17 1021.6
21 05:53 NW 5 10.00 Overcast OVC017 54 51.1 90% 30.17 1021.7
21 04:53 NW 5 10.00 Overcast OVC020 54 51.1 90% 30.17 1021.8
21 03:53 N 6 10.00 Overcast OVC020 53.1 52 55.9 53.1 96% 30.18 1022.1 0.02
21 02:53 N 6 8.00 Overcast BKN012 OVC019 53.1 52 96% 30.19 1022.2
21 01:53 N 3 10.00 Overcast FEW009 BKN016 OVC023 54 53.1 97% 30.19 1022.4
21 00:53 N 7 10.00 Overcast BKN007 BKN011 OVC024 54 52 93% 30.2 1022.6 0.02
20 23:53 N 8 3.00 Light Rain Fog/Mist BKN010 OVC015 54 52 93% 30.2 1022.6 0.02
20 22:53 N 6 2.00 Fog/Mist BKN017 OVC024 54 52 93% 30.2 1022.5
20 21:53 N 6 9.00 Overcast OVC012 55 52 64 55 90% 30.19 1022.3
20 20:53 N 7 10.00 Overcast OVC008 55 53.1 93% 30.18 1022.0
20 19:53 N 8 5.00 Light Rain Fog/Mist OVC012 55.9 53.1 90% 30.18 1022.1
20 17:53 N 7 10.00 Overcast OVC011 57.9 53.1 84% 30.18 1021.9
20 16:53 N 12 10.00 Overcast BKN023 OVC030 61 53.1 75% 30.17 1021.6
20 15:53 NE 14 G 21 10.00 Mostly Cloudy FEW025 SCT034 BKN060 62.1 53.1 68 59 73% 30.16 1021.2
20 14:53 NE 12 10.00 Overcast OVC070 60.1 51.1 72% 30.15 1021.1
20 13:53 NE 12 10.00 Overcast FEW075 OVC090 59 48.9 69% 30.15 1021.0
20 12:53 N 10 10.00 Overcast BKN065 OVC080 64.9 48.9 56% 30.14 1020.5
20 11:53 NE 10 10.00 Mostly Cloudy BKN090 68 50 53% 30.12 1020.1
20 10:53 NW 8 10.00 Mostly Cloudy BKN090 64.9 50 59% 30.13 1020.2
20 09:53 NW 8 G 17 10.00 Fair CLR 64 48.9 64.9 55.9 58% 30.12 1020.0
20 08:53 NW 14 10.00 Fair CLR 62.1 48 60% 30.11 1019.7
20 07:53 NW 15 10.00 Fair CLR 59 46.9 64% 30.11 1019.6
20 06:53 NW 12 10.00 Fair CLR 57 46 67% 30.11 1019.7
20 05:53 NW 12 10.00 Fair CLR 55.9 45 67% 30.11 1019.8
20 03:53 NW 12 10.00 Fair CLR 55.9 44.1 57 53.1 65% 30.13 1020.2
20 02:53 NW 12 10.00 Fair CLR 54 44.1 69% 30.13 1020.4
20 01:53 NW 10 10.00 Fair CLR 55 45 69% 30.14 1020.7
20 00:53 NW 7 10.00 Fair CLR 54 45 72% 30.15 1020.8
19 23:53 NW 10 10.00 Fair CLR 54 46 75% 30.15 1021.0
19 22:53 NW 9 10.00 Fair CLR 55 46.9 74% 30.16 1021.2
19 21:53 Calm 10.00 Overcast OVC044 55.9 48.9 57.9 54 77% 30.15 1021.0
19 20:53 NE 3 10.00 Mostly Cloudy BKN047 55.9 48 75% 30.14 1020.7
19 19:53 NE 3 10.00 Mostly Cloudy BKN050 57 46.9 69% 30.14 1020.7
19 18:53 Calm 10.00 Overcast OVC046 55 48 77% 30.15 1021.0
19 17:53 NE 7 10.00 Overcast FEW041 OVC060 55.9 48.9 77% 30.15 1021.1
19 16:53 NE 3 10.00 Overcast SCT037 SCT044 OVC055 55 48.9 80% 30.16 1021.3
19 15:53 E 7 10.00 Mostly Cloudy FEW042 BKN060 57 48.9 59 55 74% 30.16 1021.5
19 14:53 E 7 10.00 Mostly Cloudy BKN038 BKN049 55.9 48 75% 30.16 1021.5
19 13:53 SE 7 10.00 Overcast BKN033 OVC042 57 48.9 74% 30.17 1021.6
19 12:53 E 7 10.00 Mostly Cloudy SCT034 BKN060 57.9 48.9 72% 30.17 1021.6
19 11:53 Calm 10.00 Overcast BKN026 BKN034 OVC044 57 48 72% 30.17 1021.6
19 10:53 W 7 10.00 Overcast SCT024 BKN030 OVC035 55.9 48 75% 30.17 1021.7
19 09:53 W 7 10.00 Mostly Cloudy BKN070 55 48.9 55 50 80% 30.17 1021.6
19 08:53 W 10 10.00 Overcast BKN029 OVC070 53.1 48.9 86% 30.17 1021.6
19 07:53 NW 5 10.00 Overcast OVC024 52 48.9 89% 30.16 1021.5
19 06:53 Calm 10.00 Overcast BKN022 OVC027 51.1 50 96% 30.16 1021.4
19 05:53 Calm 10.00 Overcast BKN019 OVC026 50 48.9 96% 30.15 1021.1
19 04:53 W 3 10.00 Overcast SCT012 OVC018 50 48.9 96% 30.15 1020.9
19 03:53 Calm 10.00 Overcast OVC021 51.1 48.9 53.1 51.1 92% 30.14 1020.8 0.03
19 02:53 NW 3 10.00 Overcast OVC013 51.1 51.1 100% 30.15 1020.8
19 01:53 N 7 9.00 Overcast SCT007 OVC013 51.1 50 96% 30.14 1020.7 0.01
19 00:53 N 3 2.50 Light Rain Fog/Mist FEW005 BKN010 OVC020 51.1 50 96% 30.13 1020.4 0.02 0.02
18 23:53 N 6 5.00 Fog/Mist FEW007 OVC011 51.1 48.9 92% 30.12 1020.0
18 21:53 N 3 10.00 Overcast OVC026 53.1 48 55 52 83% 30.1 1019.4
18 20:53 NE 6 10.00 Overcast BKN015 OVC021 53.1 48 83% 30.09 1019.0
18 19:53 E 5 10.00 Overcast SCT010 SCT024 OVC039 53.1 48 83% 30.08 1018.7
18 18:53 Calm 10.00 Overcast FEW015 SCT025 OVC036 53.1 48.9 86% 30.08 1018.5
18 17:53 NE 7 10.00 Overcast OVC022 53.1 48 83% 30.07 1018.2
18 15:53 NE 10 10.00 Overcast FEW023 OVC037 53.1 48.9 54 52 86% 30.06 1017.9
Date Time (akdt) Wind (mph) Vis. (mi.) Weather Sky Cond. Air Dwpt Max. Min. Relative Humidity Wind Chill (°F) Heat Index (°F) altimeter (in) sea level (mb) 1 hr 3 hr 6 hr
6 hour
Temperature (ºF) Pressure Precipitation (in)